Probability
84 100 100 100 100 100 100 100 100 100 100 100 100 100 100 100 100 100 100 100 100 100 100 97 97 100 100 100 100 100 100 100 100 100 100 100 100 100 100 100 100 97 100
87 100 100 100 100 100 100 100 100 100 100 100 100 100 100 100 100 100 100 100 100 100 100 100 97 100 100 100 100 100 100 100 100 100 100 100 100 100 100 100 100 100 100
94 100 100 100 100 100 100 100 100 100 100 100 100 100 100 100 100 100 100 97 100 100 100 100 100 100 100 100 100 100 100 97 100 100 97 77 100 100 100 100 100 100 100
87 100 100 100 100 100 100 100 100 100 100 100 100 100 100 100 100 100 100 97 97 100 100 100 100 97 100 100 100 97 97 97 97 97 32 42 87 100 100 100 100 100 100
90 97 100 100 100 100 100 100 100 100 100 100 100 100 100 100 100 100 100 100 100 100 100 97 94 94 97 97 100 97 97 97 97 84 29 16 74 100 100 100 100 97 100
87 100 100 100 100 100 100 100 100 100 100 100 100 100 100 100 100 100 100 100 100 100 100 97 97 90 94 97 97 94 97 94 90 71 48 13 71 100 100 100 100 100 97
90 100 100 100 100 100 100 100 100 100 100 100 100 100 100 100 100 100 100 100 100 100 100 97 94 90 94 87 87 84 84 84 74 39 13 6 68 100 100 100 100 100 100
90 100 100 100 100 100 100 100 100 100 100 100 100 100 100 100 100 100 100 100 100 100 100 100 97 94 90 90 90 87 87 81 71 42 29 0 71 100 100 100 100 100 100
97 100 100 100 100 100 100 100 100 100 100 100 100 100 100 100 100 100 100 100 100 100 100 100 100 100 97 90 90 90 94 87 71 16 23 3 97 100 100 100 100 100 100
97 100 100 100 100 100 100 100 100 100 100 100 100 100 100 100 100 100 100 100 100 100 100 100 100 100 100 100 100 97 97 94 61 39 3 13 97 97 100 100 100 100 100
97 100 100 100 100 100 100 100 100 100 100 100 100 100 100 100 100 100 100 100 100 100 100 97 97 100 100 100 100 100 100 84 32 16 0 16 100 100 100 100 100 100 100
94 100 97 100 100 100 100 100 100 100 100 100 100 100 100 100 100 100 100 100 100 100 100 97 97 97 97 97 100 100 97 71 29 10 3 19 100 100 100 100 97 100 100
90 97 97 100 97 100 100 100 100 100 100 100 100 100 97 97 94 97 87 90 90 94 94 97 97 97 94 94 90 100 97 87 55 13 3 35 100 100 100 100 100 97 100
94 94 100 100 97 94 90 90 94 90 94 90 87 87 90 90 87 74 65 68 71 77 77 84 84 87 81 84 81 74 77 81 52 16 6 58 100 100 100 100 100 100 100
90 90 97 87 87 81 74 77 74 81 87 87 81 84 84 81 68 55 42 39 58 61 68 65 71 71 65 65 61 55 48 55 45 26 26 58 84 90 94 90 94 94 100
81 84 84 81 71 71 71 65 68 61 61 74 74 74 74 58 48 42 39 35 39 35 32 35 32 29 29 42 42 35 29 26 32 26 23 29 77 87 87 90 87 84 87
77 74 81 77 74 71 58 61 55 55 52 45 48 52 45 48 39 26 23 29 32 32 23 19 13 13 13 10 13 16 10 13 23 29 23 16 29 61 74 65 74 81 84
68 71 77 81 61 61 52 52 45 42 42 26 32 32 39 39 26 16 6 16 16 10 3 10 10 10 6 3 3 3 3 6 10 10 16 13 6 10 42 61 61 74 81
71 74 68 61 48 52 48 39 39 42 35 29 26 29 26 23 13 10 3 6 3 3 3 3 3 6 6 3 0 0 0 0 0 0 3 3 3 6 3 16 65 61 74
65 58 61 48 45 42 35 29 23 23 16 13 16 10 6 10 10 3 0 0 0 0 0 0 0 0 0 0 0 0 0 0 0 0 0 0 3 3 0 0 13 29 68
48 42 45 42 39 35 32 29 26 16 16 10 10 10 6 3 3 0 0 0 0 0 0 0 0 0 0 0 0 0 0 0 0 0 0 0 0 0 0 0 0 0 16
39 32 26 26 23 23 23 19 16 13 10 3 0 0 0 0 0 0 0 0 0 0 0 0 0 0 0 0 0 0 0 0 0 0 0 0 0 0 0 0 0 0 0
39 32 26 19 19 16 16 13 6 6 3 3 3 0 0 0 0 0 0 0 0 0 0 0 0 0 0 0 0 0 0 0 0 0 0 0 0 0 0 0 0 0 0
16 19 6 16 13 10 6 3 0 0 0 0 0 0 0 0 0 0 0 0 0 0 0 0 0 0 0 0 0 0 0 0 0 0 0 0 0 0 0 0 0 0 0
6 10 0 3 3 0 0 0 0 0 0 0 0 0 0 0 0 0 0 0 0 0 0 0 0 0 0 0 0 0 0 0 0 0 0 0 0 0 0 0 0 0 0
0 3 0 0 0 0 0 0 0 0 0 0 0 0 0 0 0 0 0 0 0 0 0 0 0 0 0 0 0 0 0 0 0 0 0 0 0 0 0 0 0 0 0
Height
5922 5920 5920 5920 5920 5919 5919 5918 5918 5918 5917 5917 5916 5916 5915 5914 5914 5913 5912 5911 5910 5909 5908 5907 5906 5905 5904 5903 5903 5902 5901 5901 5900 5900 5900 5900 5900 5899 5899 5898 5898 5898 5898
5921 5920 5920 5920 5920 5919 5919 5918 5918 5917 5917 5916 5916 5915 5915 5914 5913 5913 5912 5911 5910 5909 5908 5907 5906 5906 5905 5904 5903 5902 5902 5901 5901 5901 5901 5900 5900 5900 5900 5899 5899 5899 5899
5921 5920 5920 5920 5919 5919 5918 5918 5917 5917 5916 5916 5915 5915 5914 5913 5913 5912 5911 5910 5909 5909 5908 5907 5907 5906 5905 5904 5903 5903 5902 5901 5901 5901 5900 5900 5900 5900 5900 5900 5900 5900 5900
5920 5920 5920 5919 5919 5919 5918 5918 5917 5916 5916 5915 5914 5914 5913 5912 5912 5911 5910 5909 5909 5908 5907 5907 5906 5905 5905 5904 5903 5902 5902 5901 5901 5900 5900 5900 5900 5900 5900 5900 5900 5900 5901
5920 5920 5919 5919 5918 5918 5917 5917 5916 5915 5915 5914 5913 5912 5912 5911 5910 5910 5909 5908 5908 5907 5906 5906 5905 5904 5904 5903 5902 5902 5901 5901 5900 5900 5900 5900 5900 5900 5901 5901 5901 5901 5901
5919 5918 5918 5918 5917 5917 5916 5916 5915 5914 5913 5912 5912 5911 5910 5909 5908 5907 5907 5906 5906 5905 5904 5904 5903 5902 5902 5902 5901 5901 5900 5900 5899 5899 5899 5899 5900 5900 5900 5901 5901 5901 5901
5917 5917 5917 5916 5916 5915 5915 5914 5913 5912 5911 5911 5910 5909 5908 5907 5906 5905 5904 5904 5903 5902 5902 5901 5900 5900 5900 5899 5899 5899 5899 5898 5898 5898 5898 5898 5899 5899 5900 5900 5900 5901 5901
5915 5915 5915 5914 5913 5913 5912 5912 5911 5910 5909 5908 5907 5906 5905 5904 5903 5902 5901 5900 5899 5899 5898 5898 5897 5896 5896 5896 5896 5896 5896 5896 5896 5896 5897 5897 5897 5898 5898 5899 5899 5900 5900
5913 5913 5912 5912 5911 5910 5910 5909 5908 5907 5906 5905 5904 5903 5902 5901 5900 5899 5898 5897 5896 5895 5894 5894 5893 5892 5892 5892 5892 5893 5893 5893 5893 5894 5894 5895 5895 5896 5896 5897 5898 5898 5899
5910 5910 5910 5909 5908 5907 5906 5906 5905 5904 5902 5901 5900 5899 5898 5897 5895 5894 5894 5893 5892 5891 5890 5889 5889 5888 5888 5887 5887 5888 5888 5889 5890 5890 5890 5891 5892 5893 5894 5894 5895 5896 5897
5907 5908 5907 5906 5905 5904 5903 5902 5901 5900 5899 5897 5896 5895 5893 5892 5891 5890 5889 5888 5887 5886 5885 5884 5884 5883 5882 5882 5882 5882 5883 5883 5884 5886 5887 5887 5888 5889 5890 5891 5892 5894 5895
5903 5903 5903 5902 5901 5900 5899 5898 5897 5895 5894 5893 5892 5890 5889 5887 5886 5885 5883 5882 5881 5880 5880 5879 5878 5877 5877 5876 5876 5876 5876 5877 5878 5880 5882 5882 5883 5885 5886 5887 5888 5890 5891
5898 5899 5898 5897 5896 5895 5894 5893 5892 5890 5889 5888 5887 5885 5883 5882 5880 5879 5878 5876 5875 5874 5873 5873 5872 5871 5870 5869 5869 5869 5869 5870 5871 5872 5875 5877 5878 5879 5881 5882 5884 5885 5887
5894 5893 5892 5892 5891 5889 5888 5887 5886 5885 5884 5882 5881 5879 5877 5876 5874 5873 5871 5870 5869 5868 5867 5865 5865 5864 5863 5862 5861 5861 5861 5862 5863 5864 5867 5869 5871 5873 5875 5877 5879 5881 5883
5888 5888 5888 5886 5885 5884 5882 5881 5880 5878 5877 5875 5873 5872 5871 5868 5866 5865 5864 5863 5862 5861 5859 5858 5857 5857 5855 5854 5854 5854 5854 5854 5855 5856 5858 5861 5863 5866 5868 5871 5873 5875 5878
5883 5883 5881 5879 5879 5878 5876 5874 5873 5872 5871 5869 5867 5865 5863 5861 5859 5858 5856 5855 5854 5852 5851 5851 5850 5849 5848 5847 5847 5846 5846 5846 5847 5848 5850 5853 5855 5858 5861 5863 5866 5869 5872
5878 5877 5875 5874 5873 5871 5869 5868 5866 5864 5863 5861 5858 5857 5855 5853 5851 5849 5847 5846 5845 5844 5843 5842 5841 5841 5840 5840 5839 5839 5839 5839 5839 5840 5842 5844 5847 5850 5854 5857 5860 5863 5866
5872 5871 5870 5869 5867 5865 5863 5860 5858 5857 5855 5853 5851 5849 5847 5845 5843 5841 5839 5838 5836 5835 5834 5833 5832 5832 5831 5831 5831 5831 5831 5832 5832 5833 5834 5837 5839 5843 5846 5850 5853 5857 5859
5867 5866 5864 5863 5861 5859 5857 5855 5852 5850 5847 5845 5843 5841 5838 5836 5834 5832 5830 5829 5828 5827 5825 5824 5823 5823 5823 5822 5822 5823 5823 5824 5824 5825 5827 5829 5832 5835 5838 5842 5846 5850 5853
5862 5860 5859 5857 5855 5852 5850 5848 5845 5842 5839 5836 5834 5832 5830 5827 5825 5823 5821 5820 5819 5817 5816 5815 5815 5814 5814 5814 5814 5815 5815 5816 5816 5818 5820 5822 5825 5828 5831 5835 5839 5843 5846
5857 5855 5853 5851 5848 5846 5843 5840 5836 5833 5831 5828 5825 5823 5820 5818 5815 5814 5812 5810 5809 5808 5807 5806 5805 5805 5805 5805 5806 5807 5807 5808 5809 5810 5812 5814 5818 5821 5824 5828 5832 5836 5839
5852 5850 5847 5845 5842 5839 5835 5832 5829 5825 5822 5819 5816 5813 5810 5808 5806 5804 5802 5800 5799 5798 5797 5797 5796 5796 5796 5796 5797 5798 5799 5801 5801 5803 5805 5807 5810 5814 5817 5821 5825 5829 5832
5848 5845 5842 5839 5835 5832 5828 5824 5820 5816 5812 5808 5805 5802 5799 5797 5795 5793 5791 5790 5788 5788 5787 5786 5786 5786 5787 5787 5788 5789 5790 5792 5793 5796 5797 5800 5803 5806 5810 5814 5818 5822 5826
5844 5840 5837 5833 5829 5824 5820 5816 5812 5807 5803 5799 5795 5791 5788 5785 5783 5781 5780 5778 5777 5776 5776 5775 5775 5776 5776 5777 5778 5780 5781 5783 5785 5788 5790 5792 5795 5799 5802 5806 5811 5815 5819
5839 5835 5831 5827 5822 5817 5812 5808 5803 5798 5793 5789 5784 5781 5777 5774 5771 5769 5767 5767 5766 5765 5764 5764 5764 5765 5766 5767 5768 5770 5772 5773 5776 5779 5783 5785 5788 5791 5795 5799 5803 5808 5812
5832 5828 5824 5819 5814 5809 5803 5798 5793 5788 5783 5778 5774 5770 5766 5763 5760 5757 5755 5754 5754 5753 5753 5752 5753 5753 5754 5756 5757 5759 5762 5764 5767 5770 5773 5777 5780 5783 5787 5791 5796 5800 5804
Wind_Speed
6 6 6 6 6 6 6 6 7 7 7 8 9 10 10 10 10 10 11 11 11 11 11 11 11 10 10 9 8 8 8 7 7 7 7 7 6 7 7 8 9 10 10
7 7 6 6 6 6 6 6 6 6 7 7 8 9 9 9 9 9 9 10 10 10 10 10 10 9 9 9 8 7 7 7 6 6 6 6 6 6 6 7 8 9 9
7 7 7 6 6 5 5 5 5 6 7 7 8 8 9 9 9 9 9 9 9 9 9 9 9 9 9 9 8 7 7 6 5 5 5 5 5 5 5 5 6 7 8
7 7 6 6 6 6 5 5 6 7 7 8 8 9 9 9 9 9 10 9 9 10 10 10 9 9 9 9 8 8 7 6 5 5 4 3 3 3 3 3 4 6 7
7 7 7 6 7 6 6 6 7 8 8 9 9 10 10 10 10 10 10 10 10 11 11 11 11 10 10 10 9 8 8 7 6 5 4 3 2 2 1 2 3 4 5
7 7 7 7 7 7 8 8 9 9 10 10 10 10 11 11 11 11 11 12 12 12 12 12 12 12 12 12 11 10 9 8 7 6 5 3 2 1 1 1 2 3 5
8 8 8 8 9 9 10 10 10 11 11 11 11 12 12 12 12 13 13 14 14 14 14 14 14 14 14 14 13 12 11 10 10 9 7 6 5 4 3 3 3 3 4
9 9 9 10 10 11 11 11 12 12 12 12 13 13 14 14 14 15 15 15 15 15 16 16 16 15 15 15 15 15 14 13 12 12 10 9 8 7 6 6 5 5 5
10 9 9 10 11 12 13 13 13 13 13 14 14 15 15 16 16 16 16 17 17 17 17 17 17 17 17 18 18 18 17 16 15 15 14 13 11 10 9 8 8 7 7
11 10 11 12 12 13 14 14 14 14 15 15 16 17 17 17 18 18 19 19 19 19 19 19 20 20 19 20 20 21 21 20 19 18 18 16 15 14 13 11 11 10 9
13 13 12 13 13 14 14 15 15 16 17 18 18 19 19 19 20 20 21 21 22 21 21 21 22 22 22 22 23 23 23 23 23 21 20 20 18 17 16 15 13 13 12
14 13 14 14 14 15 17 18 18 19 20 20 21 21 21 22 22 23 23 24 24 24 23 23 23 24 24 25 25 25 26 26 26 25 23 23 22 21 20 19 16 15 15
17 16 16 16 17 18 19 21 21 22 23 23 23 24 24 24 25 26 26 26 26 26 26 26 26 25 25 26 27 27 27 28 28 28 27 26 25 25 23 22 20 18 17
18 17 18 19 20 21 22 23 24 24 25 26 27 27 27 27 28 29 29 29 29 29 29 29 28 28 28 28 28 29 29 30 30 31 30 29 29 28 26 25 23 22 20
20 22 22 22 22 24 25 25 25 27 28 29 29 29 30 30 30 30 31 31 31 31 31 31 30 30 30 29 29 29 30 30 31 32 32 31 31 31 30 28 26 24 23
24 24 25 24 24 25 27 28 29 30 31 31 32 33 32 32 33 33 33 33 33 33 33 32 32 31 31 30 30 30 30 30 30 32 32 32 32 32 31 30 27 26 25
26 26 27 28 28 29 29 30 31 31 33 34 34 34 34 35 35 34 34 34 33 34 33 33 32 33 32 31 30 31 30 30 30 30 31 32 32 32 31 29 27 26 26
27 27 28 28 29 30 31 32 33 34 35 36 36 36 37 37 37 36 35 35 35 35 34 34 34 33 32 31 31 31 31 30 30 30 30 31 32 32 31 30 29 28 28
26 27 27 28 29 30 31 33 34 35 36 38 39 39 39 40 39 38 36 37 36 36 35 35 34 33 32 31 30 31 31 31 30 29 29 31 32 33 31 31 31 29 29
25 26 27 29 29 30 32 33 35 37 38 39 40 40 41 40 40 39 38 37 37 36 35 35 34 34 33 31 30 30 30 30 30 30 29 31 32 32 32 31 31 30 30
24 26 28 29 30 31 32 34 36 38 39 40 41 41 41 41 41 41 40 39 38 36 35 35 35 35 34 32 31 31 31 30 30 29 29 30 30 31 31 31 31 31 30
24 26 27 28 30 32 34 35 37 39 40 41 42 42 43 43 42 42 41 40 39 38 37 36 36 35 34 33 33 32 32 30 30 29 29 30 30 31 32 31 31 32 31
22 24 26 28 31 33 34 36 37 39 41 42 43 43 43 43 42 42 41 40 40 39 38 38 37 36 36 35 34 33 32 31 30 30 29 30 30 31 32 32 32 33 32
22 24 27 29 31 33 35 37 38 40 41 42 43 43 43 42 42 41 40 40 40 39 39 38 38 37 37 36 36 34 33 33 31 30 30 30 31 32 32 32 33 32 32
22 24 26 28 31 33 35 36 38 39 40 41 42 42 42 41 41 41 40 38 38 38 38 37 37 37 36 37 36 36 34 33 32 32 31 30 30 31 32 32 32 32 33
23 25 28 30 31 33 35 36 37 38 39 39 40 40 40 39 39 39 39 37 37 37 37 37 37 37 37 37 37 36 36 34 33 32 32 32 31 32 32 33 32 32 33
Wind_Direction
353 350 348 345 348 348 347 351 357 3 7 9 9 9 8 7 8 9 10 10 12 14 16 16 18 18 17 18 22 28 34 40 47 55 61 69 80 90 99 105 108 111 111
349 346 338 337 339 339 339 343 347 353 357 359 0 0 358 356 355 356 358 359 0 1 4 6 6 8 9 9 10 15 22 28 35 45 55 61 73 85 94 102 108 111 113
351 345 334 328 328 328 328 332 338 344 347 346 346 346 345 345 344 342 342 344 345 347 348 349 350 352 355 356 356 359 4 12 20 28 40 51 62 76 89 99 108 113 116
350 342 331 320 319 317 318 323 329 332 333 334 333 333 331 330 331 331 329 330 331 332 332 333 334 333 335 337 339 341 344 350 360 8 19 31 45 60 83 100 114 120 123
342 331 324 315 309 307 307 311 318 324 326 326 326 325 324 322 322 321 319 319 320 319 319 319 319 318 317 317 319 322 324 327 333 340 349 2 19 39 81 118 131 137 138
325 319 314 309 303 300 301 305 309 314 316 318 317 317 316 314 313 312 309 307 306 306 305 305 305 305 303 302 303 303 305 307 309 311 313 317 319 314 272 194 176 169 160
309 307 305 302 299 299 299 302 303 305 306 308 309 310 310 308 306 305 303 301 300 297 295 295 295 293 292 291 290 290 291 291 291 291 291 289 282 276 268 250 223 203 187
301 302 301 296 295 297 298 299 300 299 299 300 302 305 305 304 304 302 301 299 297 295 293 291 289 286 284 282 280 280 280 281 280 279 277 274 271 268 266 259 245 227 214
298 297 297 296 296 295 295 295 296 296 296 298 300 301 300 299 300 301 300 299 296 294 291 288 284 281 280 277 274 272 271 271 271 272 272 268 265 263 260 259 254 244 232
293 288 288 292 293 292 292 293 294 296 297 298 299 299 299 298 297 297 298 299 297 295 292 289 283 279 278 275 272 270 267 264 263 264 266 265 262 260 257 256 255 251 244
286 284 281 285 289 290 292 293 293 295 296 297 297 299 298 298 297 296 296 298 298 296 293 291 287 281 278 275 271 268 265 262 260 258 259 261 260 258 256 253 254 252 249
283 282 282 283 284 288 291 293 293 294 294 295 296 297 298 298 298 297 294 294 296 295 294 293 292 287 281 277 271 267 264 261 259 256 253 255 256 254 253 251 251 251 250
284 281 281 281 284 287 288 290 290 293 294 294 295 296 297 297 297 296 293 292 293 293 293 291 291 289 284 280 272 267 265 261 258 255 251 249 251 252 250 248 247 247 248
279 279 279 281 282 284 285 287 288 291 294 293 291 292 293 293 293 292 291 290 290 290 289 287 288 286 285 281 274 269 266 261 257 255 251 246 246 248 249 247 245 245 244
285 287 283 280 282 284 284 286 288 291 293 292 291 292 292 291 291 289 289 288 287 285 285 286 287 285 284 281 277 272 267 263 260 254 251 247 244 245 246 247 242 239 241
290 290 288 288 288 288 288 288 289 289 289 291 291 290 292 293 293 289 286 285 285 284 283 281 281 281 280 279 278 277 271 267 265 257 252 248 246 244 244 242 239 238 236
291 291 290 292 291 290 289 289 289 290 290 290 291 292 291 292 293 292 290 288 287 286 284 280 279 279 278 276 275 274 272 269 264 259 253 248 244 242 241 240 240 236 235
289 290 290 290 290 290 290 290 291 293 292 291 292 292 292 293 292 291 291 290 289 287 285 282 280 278 278 274 271 269 269 270 264 258 252 248 245 242 238 237 235 235 234
289 290 290 291 291 290 290 290 290 290 290 291 291 292 292 292 291 290 288 288 289 286 283 281 280 277 277 274 270 267 267 268 264 257 253 248 244 240 236 235 233 233 230
291 292 292 292 293 292 291 291 290 290 291 291 291 291 291 290 290 288 287 287 286 284 280 278 277 276 276 272 269 267 266 265 263 257 251 248 244 237 235 234 232 230 228
291 292 293 293 294 294 293 293 292 292 291 291 291 290 290 289 288 288 287 286 284 282 280 278 277 276 274 271 267 266 264 263 261 257 250 246 241 236 233 232 230 228 226
295 296 296 296 296 295 295 294 293 293 292 291 290 289 288 288 287 286 285 284 282 280 278 276 275 273 271 269 266 264 261 260 259 255 249 245 240 237 234 232 231 228 225
298 298 298 297 296 296 295 295 294 293 293 292 291 290 289 287 286 284 282 280 279 277 276 274 273 271 269 266 264 262 259 258 256 253 250 244 238 236 234 233 230 226 224
303 301 300 299 298 298 297 296 295 294 293 293 292 291 289 288 286 284 281 279 278 276 274 272 271 268 266 264 262 260 259 256 253 249 246 243 239 234 232 230 227 225 221
305 303 303 301 300 299 298 297 296 295 294 293 292 290 289 287 286 284 283 280 277 275 274 271 269 266 264 262 260 257 256 253 251 247 244 242 237 232 229 226 223 222 220
312 311 309 307 306 305 304 302 300 299 297 296 294 292 290 288 287 285 283 280 277 275 272 271 268 265 263 261 258 256 253 251 249 246 243 239 234 230 227 225 223 222 219